Weather History for Brookhaven, MS

Change the Weather History Date:

Tuesday, January 7, 2014

  Actual Average (KMCB) Record (KMCB)
Temperature  
Mean Temperature 24 °F -  
Max Temperature 35 °F 58 °F 80 °F (1989)
Min Temperature 14 °F 37 °F 14 °F (2014)
Degree Days  
Heating Degree Days 40    
Moisture  
Dew Point 12 °F    
Average Humidity 62    
Maximum Humidity 86    
Minimum Humidity 35    
Precipitation  
Precipitation 0.00 in - - ()
Sea Level Pressure  
Sea Level Pressure 30.57 in    
Wind  
Wind Speed 1 mph (NNW)    
Max Wind Speed 8 mph    
Max Gust Speed -    
Visibility 10 miles    
Events      
Averages and records for this station are not official NWS values.
T = Trace of Precipitation, MM = Missing Value Source: NWS Daily Summary

Daily Weather History Graph

Daily Weather History Graph

Search for Another Location

Airport:

Trip Planner

Search our weather history database for the weather conditions in past years. The results will help you decide how hot, cold, wet, or windy it might be!

Date:

Astronomy

Jan. 07, 2014 Rise Set
Actual Time 7:02 AM CST 5:14 PM CST
Civil Twilight 6:35 AM CST 5:40 PM CST
Nautical Twilight 6:05 AM CST 6:10 PM CST
Astronomical Twilight 5:35 AM CST 6:40 PM CST
Moon 11:18 AM CST (1/7) No Moon Set
Length of Visible Light 11h 05m
Length of Day
10h 11m
Waxing Crescent, 46% of the Moon is Illuminated
Jan 7
Waxing Crescent
Jan 7
First Quarter
Jan 15
Full
Jan 23
Last Quarter
Jan 30
New

Hourly Weather History & Observations

Time (CST) Temp. Windchill Dew Point Humidity Pressure Visibility Wind Dir Wind Speed Gust Speed Precip Events Conditions
12:15 AM 19.4 °F - 12.2 °F 74% 30.59 in 10.0 mi Calm Calm - N/A   Clear
12:55 AM 17.6 °F - 12.2 °F 79% 30.58 in 10.0 mi Calm Calm - N/A   Clear
1:15 AM 17.6 °F - 14.0 °F 86% 30.59 in 10.0 mi Calm Calm - N/A   Clear
1:35 AM 17.6 °F - 12.2 °F 79% 30.59 in 10.0 mi Calm Calm - N/A   Clear
1:55 AM 15.8 °F - 12.2 °F 86% 30.59 in 10.0 mi Calm Calm - N/A   Clear
2:15 AM 17.6 °F - 12.2 °F 79% 30.59 in 10.0 mi Calm Calm - N/A   Clear
2:35 AM 17.6 °F - 12.2 °F 79% 30.59 in 10.0 mi Calm Calm - N/A   Clear
2:55 AM 17.6 °F - 14.0 °F 86% 30.60 in 10.0 mi Calm Calm - N/A   Clear
3:15 AM 15.8 °F - 12.2 °F 86% 30.61 in 10.0 mi Calm Calm - N/A   Clear
3:35 AM 17.6 °F - 12.2 °F 79% 30.60 in 10.0 mi Calm Calm - N/A   Clear
3:55 AM 17.6 °F - 10.4 °F 73% 30.60 in 10.0 mi Calm Calm - N/A   Clear
4:15 AM 17.6 °F - 10.4 °F 73% 30.60 in 10.0 mi Calm Calm - N/A   Clear
4:35 AM 17.6 °F - 10.4 °F 73% 30.60 in 10.0 mi Calm Calm - N/A   Clear
4:55 AM 17.6 °F - 10.4 °F 73% 30.61 in 10.0 mi Calm Calm - N/A   Clear
5:15 AM 17.6 °F - 8.6 °F 68% 30.62 in 10.0 mi Calm Calm - N/A   Clear
5:35 AM 17.6 °F - 10.4 °F 73% 30.61 in 10.0 mi Calm Calm - N/A   Clear
5:55 AM 15.8 °F - 12.2 °F 86% 30.62 in 10.0 mi Calm Calm - N/A   Clear
6:15 AM 15.8 °F - 12.2 °F 86% 30.62 in 10.0 mi Calm Calm - N/A   Clear
6:35 AM 15.8 °F - 10.4 °F 79% 30.63 in 10.0 mi Calm Calm - N/A   Clear
6:55 AM 14.0 °F - 10.4 °F 86% 30.63 in 10.0 mi Calm Calm - N/A   Clear
7:15 AM 14.0 °F - 10.4 °F 86% 30.63 in 10.0 mi Calm Calm - N/A   Clear
7:35 AM 15.8 °F - 12.2 °F 86% 30.64 in 10.0 mi Calm Calm - N/A   Clear
7:55 AM 17.6 °F - 10.4 °F 73% 30.64 in 10.0 mi Calm Calm - N/A   Clear
8:15 AM 17.6 °F - 10.4 °F 73% 30.65 in 10.0 mi Calm Calm - N/A   Clear
8:35 AM 19.4 °F 11.5 °F 10.4 °F 68% 30.65 in 10.0 mi North 5.8 mph - N/A   Clear
8:55 AM 19.4 °F 14.3 °F 8.6 °F 63% 30.66 in 10.0 mi North 3.5 mph - N/A   Clear
9:15 AM 21.2 °F - 6.8 °F 54% 30.66 in 10.0 mi Calm Calm - N/A   Clear
9:35 AM 21.2 °F - 5.0 °F 50% 30.66 in 10.0 mi Calm Calm - N/A   Clear
9:55 AM 23.0 °F - 6.8 °F 50% 30.66 in 10.0 mi Calm Calm - N/A   Clear
10:15 AM 23.0 °F 18.4 °F 6.8 °F 50% 30.66 in 10.0 mi SE 3.5 mph - N/A   Clear
10:35 AM 26.6 °F 22.6 °F 6.8 °F 43% 30.65 in 10.0 mi East 3.5 mph - N/A   Clear
10:55 AM 26.6 °F - 5.0 °F 40% 30.64 in 10.0 mi Calm Calm - N/A   Clear
11:15 AM 28.4 °F 24.6 °F 6.8 °F 40% 30.63 in 10.0 mi West 3.5 mph - N/A   Clear
11:35 AM 28.4 °F - 5.0 °F 37% 30.61 in 10.0 mi Calm Calm - N/A   Clear
11:55 AM 30.2 °F 26.7 °F 8.6 °F 40% 30.60 in 10.0 mi SW 3.5 mph - N/A   Clear
12:15 PM 32.0 °F 27.5 °F 8.6 °F 38% 30.58 in 10.0 mi West 4.6 mph - N/A   Clear
12:35 PM 32.0 °F 28.7 °F 8.6 °F 38% 30.57 in 10.0 mi North 3.5 mph - N/A   Clear
12:55 PM 32.0 °F 26.4 °F 6.8 °F 35% 30.56 in 10.0 mi NNW 5.8 mph - N/A   Clear
1:15 PM 32.0 °F - 8.6 °F 38% 30.56 in 10.0 mi Calm Calm - N/A   Clear
1:35 PM 33.8 °F 27.7 °F 8.6 °F 35% 30.56 in 10.0 mi WNW 6.9 mph - N/A   Clear
1:55 PM 33.8 °F 29.6 °F 8.6 °F 35% 30.55 in 10.0 mi West 4.6 mph - N/A   Clear
2:15 PM 35.6 °F - 10.4 °F 35% 30.55 in 10.0 mi Calm Calm - N/A   Clear
2:35 PM 35.6 °F 29.9 °F 10.4 °F 35% 30.54 in 10.0 mi NW 6.9 mph - N/A   Clear
2:55 PM 35.6 °F 29.9 °F 10.4 °F 35% 30.54 in 10.0 mi NW 6.9 mph - N/A   Clear
3:15 PM 35.6 °F 29.2 °F 10.4 °F 35% 30.54 in 10.0 mi North 8.1 mph - N/A   Clear
3:35 PM 35.6 °F 32.8 °F 10.4 °F 35% 30.54 in 9.0 mi NE 3.5 mph - N/A   Clear
3:55 PM 33.8 °F 30.8 °F 8.6 °F 35% 30.53 in 10.0 mi NW 3.5 mph - N/A   Clear
4:15 PM 33.8 °F 29.6 °F 10.4 °F 38% 30.53 in 10.0 mi NNW 4.6 mph - N/A   Clear
4:35 PM 33.8 °F 29.6 °F 10.4 °F 38% 30.52 in 10.0 mi North 4.6 mph - N/A   Clear
4:55 PM 33.8 °F - 10.4 °F 38% 30.52 in 10.0 mi Calm Calm - N/A   Clear
5:15 PM 32.0 °F - 10.4 °F 41% 30.52 in 10.0 mi Calm Calm - N/A   Clear
5:35 PM 30.2 °F - 12.2 °F 47% 30.51 in 10.0 mi Calm Calm - N/A   Clear
5:55 PM 30.2 °F - 12.2 °F 47% 30.51 in 10.0 mi Calm Calm - N/A   Clear
6:15 PM 28.4 °F - 14.0 °F 55% 30.52 in 10.0 mi Calm Calm - N/A   Clear
6:35 PM 28.4 °F - 14.0 °F 55% 30.52 in 10.0 mi Calm Calm - N/A   Clear
6:55 PM 28.4 °F - 14.0 °F 55% 30.52 in 10.0 mi Calm Calm - N/A   Clear
7:15 PM 26.6 °F - 17.6 °F 69% 30.52 in 10.0 mi Calm Calm - N/A   Clear
7:35 PM 26.6 °F - 17.6 °F 69% 30.52 in 10.0 mi Calm Calm - N/A   Clear
7:55 PM 26.6 °F - 17.6 °F 69% 30.53 in 10.0 mi Calm Calm - N/A   Clear
8:15 PM 26.6 °F - 17.6 °F 69% 30.53 in 10.0 mi Calm Calm - N/A   Clear
8:35 PM 26.6 °F - 17.6 °F 69% 30.53 in 10.0 mi Calm Calm - N/A   Clear
8:55 PM 24.8 °F - 17.6 °F 74% 30.53 in 10.0 mi Calm Calm - N/A   Clear
9:15 PM 24.8 °F - 19.4 °F 80% 30.53 in 10.0 mi Calm Calm - N/A   Clear
9:35 PM 23.0 °F - 19.4 °F 86% 30.53 in 10.0 mi Calm Calm - N/A   Clear
9:55 PM 24.8 °F - 17.6 °F 74% 30.52 in 10.0 mi Calm Calm - N/A   Clear
10:15 PM 23.0 °F - 17.6 °F 80% 30.52 in 10.0 mi Calm Calm - N/A   Clear
10:35 PM 23.0 °F - 17.6 °F 80% 30.51 in 10.0 mi Calm Calm - N/A   Clear
10:55 PM 23.0 °F - 17.6 °F 80% 30.51 in 10.0 mi Calm Calm - N/A   Clear
11:15 PM 23.0 °F - 17.6 °F 80% 30.50 in 10.0 mi Calm Calm - N/A   Clear
11:35 PM 23.0 °F - 17.6 °F 80% 30.49 in 10.0 mi Calm Calm - N/A   Clear
11:55 PM 21.2 °F - 17.6 °F 86% 30.48 in 10.0 mi Calm Calm - N/A   Clear